[[{"header":{"parameterUnit":"m.s-1","parameterCategory":1,"la1":30.2991,"la2":30.254,"lo1":-89.0895,"lo2":-89.0444,"dy":0.0017,"dx":0.0017,"nx":28,"ny":28,"refTime":"2025-03-12T21:00:00:Z","depth":0,"parameterNumber":2,"parameterNumberName":"U-component_of_WINDS"},"data":[0,0,0,0,0,0,0,0,0,0,0,0,0,0,0,0,0,0,0,0,0,0,0,0,0,0,0,0,0,0,0,0,0,0,0,0,0,0,0,0,0,0,0,0,0,0,0,0,0,0,0,0,0,0,0,0,0,0,-3.9278,-3.9279,0,-3.9345,-3.9346,-3.9347,-3.9362,-3.9361,-3.9361,-3.936,-3.9424,-3.9426,-3.9428,0,0,0,0,0,0,0,0,0,0,0,0,0,-3.9159,-3.9161,-3.9278,-3.9279,-3.928,-3.9345,-3.9346,-3.9347,-3.9362,-3.9361,-3.936,-3.936,-3.9423,-3.9426,-3.9428,0,0,0,0,0,0,0,0,0,0,0,0,0,-3.9216,-3.9162,-3.9278,-3.9295,-3.9298,-3.9345,-3.9346,-3.9347,-3.9362,-3.9361,-3.936,-3.936,-3.9422,-3.9425,-3.9429,-3.9462,0,0,-3.9438,-3.944,0,0,0,0,0,0,0,0,-3.9213,-3.9221,-3.9292,-3.9294,-3.9297,-3.9344,-3.9327,-3.9385,-3.9362,-3.9337,-3.936,-3.9359,-3.9398,-3.9403,-3.9417,-3.9465,-3.9468,-3.9439,-3.944,-3.9442,-3.9443,0,0,0,0,0,0,0,-3.9209,-3.9218,-3.9305,-3.9293,-3.9296,-3.9298,-3.9305,-3.9338,-3.937,-3.9339,-3.9341,-3.9349,-3.9399,-3.9414,-3.9418,-3.9469,-3.9438,-3.9441,-3.9443,-3.9445,-3.9546,-3.9546,0,0,0,0,0,0,-3.9203,-3.9215,-3.9302,-3.9307,-3.9253,-3.9301,-3.9309,-3.933,-3.937,-3.9376,-3.9349,-3.9349,-3.9408,-3.9415,-3.9421,-3.9461,-3.9442,-3.9445,-3.9447,-3.9545,-3.9546,-3.9547,0,0,0,0,0,0,-3.92,-3.9211,-3.93,-3.9261,-3.9273,-3.9304,-3.9327,-3.9331,-3.9346,-3.9377,-3.9383,-3.9359,-3.9408,-3.9416,-3.9451,-3.9463,-3.9446,-3.9449,-3.9544,-3.9545,-3.9546,-3.9543,0,0,0,0,0,0,-3.9197,-3.921,-3.9224,-3.9261,-3.9275,-3.9331,-3.9327,-3.9333,-3.9352,-3.9353,-3.9388,-3.9393,-3.9408,-3.9447,-3.9455,-3.9468,-3.9452,-3.9543,-3.9544,-3.9546,-3.9542,-3.9544,-3.9545,0,0,0,0,0,-3.9192,-3.922,-3.9225,-3.9235,-3.9293,-3.9332,-3.9339,-3.9358,-3.9353,-3.9367,-3.9387,-3.9392,-3.9461,-3.945,-3.9459,-3.9473,-3.9542,-3.9544,-3.9546,-3.9541,-3.9543,-3.9545,0,0,0,0,0,0,-3.9181,-3.9225,-3.9231,-3.9271,-3.9298,-3.9334,-3.9352,-3.936,-3.9387,-3.9386,-3.9406,-3.9414,-3.9448,-3.9464,-3.9451,-3.9507,-3.9501,-3.9505,-3.9495,-3.9497,-3.9499,-3.9493,-3.9454,0,0,0,0,0,-3.9184,-3.9213,-3.9249,-3.9281,-3.9294,-3.9321,-3.9338,-3.935,-3.9378,-3.9389,-3.9411,-3.9437,-3.9464,-3.9482,-3.9509,-3.9545,-3.9552,-3.9559,-3.956,-3.9562,-3.9564,-3.9583,-3.9586,-3.9552,-3.9552,-3.9552,0,0,-3.9189,-3.9216,-3.9233,-3.928,-3.9302,-3.933,-3.933,-3.936,-3.938,-3.9393,-3.9428,-3.9445,-3.9475,-3.951,-3.9527,-3.9525,-3.9575,-3.9564,-3.9565,-3.9566,-3.9585,-3.9588,-3.9591,-3.9553,-3.9553,-3.9553,0,0,-3.9212,-3.9237,-3.9266,-3.9288,-3.9322,-3.9339,-3.9346,-3.9381,-3.9393,-3.9429,-3.9439,-3.9462,-3.951,-3.953,-3.9546,-3.9576,-3.9581,-3.9584,-3.9592,-3.961,-3.9613,-3.9615,-3.9624,-3.9628,-3.9587,-3.9587,-3.9587,0,-3.9214,-3.9258,-3.9279,-3.9309,-3.9328,-3.9342,-3.937,-3.939,-3.943,-3.9442,-3.944,-3.9498,-3.9519,-3.9559,-3.9566,-3.958,-3.9587,-3.958,-3.9611,-3.9614,-3.9616,-3.9625,-3.9629,-3.9587,-3.9587,-3.9587,-3.9587,0,-3.9257,-3.9288,-3.9307,-3.9346,-3.9368,-3.9396,-3.942,-3.9439,-3.9448,-3.9465,-3.95,-3.9526,-3.9558,-3.9568,-3.9578,-3.9609,-3.9606,-3.9607,-3.9602,-3.9619,-3.9628,-3.9632,-3.9587,-3.9587,-3.9587,-3.9587,0,0,-3.9275,-3.9326,-3.9333,-3.935,-3.9388,-3.9411,-3.9439,-3.9472,-3.9487,-3.9514,-3.9537,-3.9576,-3.9577,-3.9596,-3.9607,-3.9623,-3.9643,-3.9622,-3.9623,-3.9624,-3.9677,-3.9675,-3.9679,-3.9648,-3.9648,-3.9649,-3.9674,0,-3.9302,-3.9355,-3.9374,-3.9417,-3.9444,-3.9457,-3.9481,-3.9506,-3.9523,-3.9547,-3.9564,-3.9591,-3.9592,-3.9603,-3.9619,-3.9638,-3.9654,-3.9636,-3.9667,-3.9668,-3.9658,-3.9684,-3.9682,-3.9705,-3.9678,-3.9679,-3.9679,0,-3.934,-3.9369,-3.9414,-3.9448,-3.946,-3.9482,-3.9512,-3.9536,-3.9564,-3.9574,-3.9595,-3.9606,-3.9634,-3.9628,-3.9666,-3.9653,-3.9667,-3.9678,-3.9679,-3.9681,-3.9674,-3.9686,-3.9713,-3.9716,-3.9685,-3.9684,-3.9684,0,-3.9347,-3.9396,-3.943,-3.9445,-3.9485,-3.95,-3.9517,-3.9544,-3.9562,-3.9588,-3.96,-3.9629,-3.9644,-3.9665,-3.9682,-3.9677,-3.9718,-3.9714,-3.9726,-3.9726,-3.9734,-3.9733,-3.9762,-3.9745,-3.9745,-3.9745,-3.9745,0,-3.9374,-3.9401,-3.9433,-3.9453,-3.9483,-3.9505,-3.9533,-3.9551,-3.9575,-3.9597,-3.9611,-3.9631,-3.9654,-3.9677,-3.9691,-3.9719,-3.9726,-3.9734,-3.9737,-3.9733,-3.9731,-3.9741,-3.9739,-3.9746,-3.9745,-3.9745,-3.9745,0,-3.9386,-3.9409,-3.9446,-3.9481,-3.9491,-3.9511,-3.954,-3.956,-3.9577,-3.9605,-3.9613,-3.9639,-3.9667,-3.9687,-3.9723,-3.9732,-3.9762,-3.9766,-3.9753,-3.9754,-3.9765,-3.9763,-3.9801,-3.9806,-3.9786,-3.9786,-3.9786,0,-3.9401,-3.9422,-3.946,-3.9477,-3.9494,-3.9521,-3.9539,-3.9561,-3.9579,-3.9612,-3.9627,-3.9656,-3.968,-3.9723,-3.9744,-3.9771,-3.9775,-3.9786,-3.9779,-3.9773,-3.9773,-3.9771,-3.9773,-3.9787,-3.9787,-3.9787,-3.9787,0,-3.9425,-3.9435,-3.9462,-3.9493,-3.9515,-3.9539,-3.9564,-3.9577,-3.9602,-3.9622,-3.9651,-3.967,-3.9707,-3.9734,-3.9763,-3.9779,-3.9787,-3.9789,-3.9793,-3.9788,-3.9779,-3.9783,-3.9754,-3.9788,-3.9788,-3.9788,-3.9788,-3.9788,-3.9438,-3.9456,-3.9486,-3.9515,-3.9536,-3.9559,-3.9579,-3.9599,-3.9624,-3.9656,-3.9667,-3.9697,-3.9722,-3.9762,-3.9779,-3.9801,-3.98,-3.9807,-3.9808,-3.9809,-3.9808,-3.9777,-3.9806,-3.9806,-3.9806,-3.9806,-3.9806,0,-3.9461,-3.948,-3.9507,-3.9542,-3.9565,-3.9571,-3.9599,-3.9617,-3.9643,-3.9668,-3.9692,-3.9724,-3.9751,-3.9775,-3.9803,-3.9816,-3.982,-3.9822,-3.9821,-3.9824,-3.9808,-3.9801,-3.9818,-3.9818,-3.9818,-3.9818,-3.9818,-3.9818,-3.9475,-3.9507,-3.9521,-3.9563,-3.9582,-3.9612,-3.9627,-3.9648,-3.9667,-3.9704,-3.9727,-3.9743,-3.9766,-3.9795,-3.982,-3.9826,-3.9835,-3.9836,-3.9843,-3.9827,-3.9825,-3.9824,-3.9818,-3.9838,-3.9838,-3.9857,-3.9858,-3.9858]},{"header":{"parameterUnit":"m.s-1","parameterCategory":1,"la1":30.2991,"la2":30.254,"lo1":-89.0895,"lo2":-89.0444,"dy":0.0017,"dx":0.0017,"nx":28,"ny":28,"refTime":"2025-03-12T21:00:00:Z","depth":0,"parameterNumber":3,"parameterNumberName":"V-component_of_WINDS"},"data":[0,0,0,0,0,0,0,0,0,0,0,0,0,0,0,0,0,0,0,0,0,0,0,0,0,0,0,0,0,0,0,0,0,0,0,0,0,0,0,0,0,0,0,0,0,0,0,0,0,0,0,0,0,0,0,0,0,0,5.3695,5.3698,0,5.3906,5.3908,5.3911,5.3979,5.3978,5.3977,5.3976,5.4191,5.4198,5.4204,0,0,0,0,0,0,0,0,0,0,0,0,0,5.3354,5.336,5.3695,5.3698,5.37,5.3905,5.3908,5.3911,5.3979,5.3978,5.3977,5.3976,5.4189,5.4197,5.4205,0,0,0,0,0,0,0,0,0,0,0,0,0,5.3527,5.3362,5.3695,5.3759,5.3767,5.3905,5.3908,5.3912,5.3979,5.3978,5.3976,5.3975,5.4187,5.4196,5.4206,5.4295,0,0,5.4236,5.4241,0,0,0,0,0,0,0,0,5.3517,5.354,5.3747,5.3755,5.3764,5.3915,5.3867,5.404,5.398,5.3899,5.3976,5.3974,5.41,5.4117,5.416,5.4305,5.4314,5.4237,5.4243,5.4247,5.425,0,0,0,0,0,0,0,5.3505,5.3531,5.3779,5.375,5.376,5.3778,5.3801,5.39,5.4005,5.3906,5.3911,5.3935,5.4105,5.415,5.4165,5.4318,5.4237,5.4246,5.4252,5.4256,5.4551,5.4553,0,0,0,0,0,0,5.3482,5.3521,5.3772,5.3785,5.3635,5.3785,5.3811,5.3868,5.4004,5.4023,5.3936,5.3937,5.4134,5.4154,5.4173,5.429,5.4247,5.4257,5.4262,5.4549,5.4551,5.4553,0,0,0,0,0,0,5.3475,5.3504,5.3763,5.3654,5.3689,5.3793,5.3856,5.3873,5.3918,5.4027,5.4046,5.3963,5.4134,5.4159,5.4265,5.4298,5.4261,5.427,5.4547,5.455,5.4552,5.4522,0,0,0,0,0,0,5.3465,5.3501,5.3535,5.3655,5.3694,5.3851,5.3858,5.3878,5.3935,5.3939,5.4057,5.4076,5.4135,5.425,5.4275,5.4311,5.4278,5.4544,5.4548,5.4551,5.452,5.4523,5.4525,0,0,0,0,0,5.3452,5.3517,5.3537,5.3567,5.3739,5.3853,5.3876,5.3942,5.3937,5.3974,5.4044,5.4072,5.429,5.426,5.4289,5.4329,5.4543,5.4547,5.4551,5.4519,5.4522,5.4525,0,0,0,0,0,0,5.3398,5.3534,5.3557,5.3662,5.3746,5.3864,5.3912,5.3943,5.4029,5.4029,5.4108,5.4134,5.4235,5.4292,5.4257,5.4424,5.4418,5.4428,5.4383,5.4388,5.439,5.4376,5.4286,0,0,0,0,0,5.3399,5.3479,5.3593,5.3676,5.3716,5.3807,5.3858,5.3903,5.3992,5.4028,5.4106,5.4192,5.428,5.4337,5.4423,5.4528,5.4557,5.4569,5.4572,5.4574,5.4582,5.4646,5.4654,5.4567,5.4567,5.4567,0,0,5.34,5.3485,5.353,5.3667,5.3737,5.382,5.3836,5.3922,5.3985,5.4041,5.4147,5.4207,5.4308,5.4415,5.4465,5.4465,5.4612,5.4579,5.4579,5.4588,5.4651,5.4659,5.4666,5.457,5.457,5.4569,0,0,5.3447,5.3517,5.3595,5.3665,5.3771,5.3831,5.385,5.3964,5.4007,5.4114,5.4159,5.4235,5.4384,5.4456,5.4512,5.4587,5.4618,5.4613,5.4628,5.4689,5.4695,5.4702,5.4732,5.4742,5.4621,5.4621,5.4621,0,5.3436,5.3562,5.3631,5.3717,5.3777,5.3831,5.3912,5.3977,5.4105,5.4146,5.4144,5.4335,5.4406,5.4532,5.4551,5.4593,5.4619,5.4601,5.4689,5.4696,5.4703,5.4733,5.4744,5.462,5.462,5.462,5.462,0,5.3545,5.3633,5.3683,5.3807,5.3873,5.3955,5.4038,5.4096,5.4134,5.4195,5.4305,5.4393,5.4501,5.4533,5.4571,5.4665,5.4663,5.4673,5.4669,5.4709,5.4739,5.4751,5.4618,5.4619,5.4619,5.4619,0,0,5.3564,5.3727,5.3745,5.3803,5.3925,5.3994,5.4079,5.4185,5.4235,5.4322,5.4398,5.4524,5.4536,5.4599,5.4645,5.4698,5.4757,5.4703,5.4707,5.4713,5.4871,5.4864,5.4876,5.4777,5.4779,5.4781,5.4864,0,5.3629,5.3785,5.385,5.3977,5.406,5.4114,5.4189,5.4272,5.4331,5.4411,5.4476,5.4566,5.4573,5.4612,5.4667,5.4738,5.479,5.4733,5.485,5.4854,5.4827,5.4891,5.4884,5.4958,5.4875,5.4877,5.4879,0,5.3725,5.3815,5.3949,5.4064,5.4101,5.4168,5.4272,5.4347,5.4443,5.4482,5.4554,5.4598,5.4692,5.468,5.4811,5.4771,5.4823,5.4865,5.487,5.4886,5.4871,5.4912,5.4982,5.4995,5.4897,5.4895,5.4894,0,5.373,5.3883,5.3985,5.4033,5.4168,5.4214,5.4273,5.4368,5.4428,5.4519,5.4559,5.4659,5.4714,5.4791,5.4861,5.4845,5.4988,5.498,5.5025,5.5024,5.5055,5.5053,5.5138,5.5082,5.5082,5.5082,5.5082,0,5.3797,5.3878,5.399,5.4052,5.4146,5.422,5.4311,5.4373,5.4458,5.4535,5.4586,5.4657,5.4745,5.4827,5.4883,5.4986,5.5009,5.5045,5.506,5.5043,5.5039,5.508,5.5078,5.5085,5.5084,5.5084,5.5083,0,5.3819,5.3896,5.4012,5.4131,5.4163,5.4227,5.4329,5.4393,5.4455,5.4552,5.4579,5.4676,5.4776,5.4854,5.4983,5.5021,5.5131,5.5144,5.5098,5.5107,5.5149,5.5145,5.5266,5.5287,5.5214,5.5214,5.5215,0,5.3858,5.3923,5.405,5.4105,5.4164,5.4252,5.4315,5.4391,5.4454,5.457,5.462,5.4724,5.4812,5.497,5.5053,5.5153,5.5172,5.5207,5.5187,5.5169,5.5177,5.5174,5.5182,5.521,5.5211,5.5211,5.5211,0,5.3922,5.3957,5.4046,5.4148,5.4222,5.4306,5.4391,5.4434,5.4526,5.4594,5.4698,5.4766,5.49,5.5004,5.5113,5.5174,5.521,5.5217,5.5233,5.5218,5.5191,5.521,5.5109,5.5214,5.5214,5.5214,5.5214,5.5214,5.3957,5.4018,5.4117,5.4215,5.4287,5.4366,5.4434,5.4504,5.4592,5.4708,5.4747,5.4855,5.4952,5.5103,5.5165,5.5251,5.5253,5.5275,5.5282,5.5287,5.5288,5.5174,5.5271,5.5271,5.5271,5.5271,5.5271,0,5.4026,5.4093,5.4182,5.4301,5.4378,5.4404,5.45,5.4563,5.4658,5.4746,5.4831,5.4952,5.5054,5.5144,5.525,5.5302,5.5321,5.5328,5.5326,5.5341,5.5278,5.5255,5.5311,5.5311,5.5311,5.5311,5.5311,5.5311,5.4071,5.4177,5.4225,5.4368,5.4435,5.4542,5.4595,5.4669,5.474,5.4873,5.4958,5.5016,5.5107,5.522,5.5315,5.5339,5.5377,5.538,5.5409,5.5349,5.5345,5.534,5.5319,5.5387,5.5387,5.5465,5.5466,5.5466]}]]